Location: Albany
(35.0170°S, 117.8920°E)
Time: 03:35:04
(UTC+08:00)

Vanguard 1 - Pass Details

Date: 31 January 2021
Orbit: 649 x 3833 km, 34.2° (Epoch: 26 February)

Event Time Altitude Azimuth Distance (km) Brightness Sun altitude
Rises 23:39:13 0° 292° (WNW) 5,595 13.9 -36.8°
Reaches altitude 10° 23:43:39 10° 294° (WNW) 4,079 13.1 -37.0°
Enters shadow 23:44:07 11° 294° (WNW) 3,910 13.0 -37.0°
Maximum altitude 23:53:09 66° 13° (NNE) 1,194 - -37.3°
Drops below altitude 10° 23:58:39 10° 95° (E) 2,419 - -37.5°
Sets 00:00:40 0° 98° (E) 3,194 - -37.5°
